Location: Gibercourt
(49.7369°N, 3.2845°E)
Time: 10:13:46
(UTC+00:00)

Daily predictions for brighter satellites

Satellite Brightness Start Highest point End
(mag) Time Altitude Azimuth Time Altitude Azimuth Time Altitude Azimuth
Meteor 1-27 Rocket 3.9 20:28:16 10° SSW 20:33:52 82° WNW 20:39:26 10° N
Cosmos 2208 Rocket 4.2 20:30:25 10° S 20:35:27 53° ESE 20:40:29 10° NNE
BREEZE-M DEB (TANK) 1.6 20:33:52 10° W 20:36:45 85° S 20:38:45 10° E
SPOT 3 Rocket 3.8 20:34:50 10° SSE 20:39:50 57° ENE 20:44:54 10° N
SL-12 R/B (Aux Motor) 4.5 20:38:26 10° WSW 20:40:37 41° SSE 20:44:25 10° E
Aureole 2 4.2 20:38:11 10° SSW 20:41:04 69° WNW 20:43:52 10° NNE
NOSS 2-2 (D) 3.9 20:39:29 10° WSW 20:42:41 47° NW 20:45:36 10° NNE
YAOGAN 11 4.2 20:38:22 10° NNE 20:42:48 62° ESE 20:47:10 10° S
Cosmos 2082 4.1 20:38:37 10° SW 20:44:13 70° WNW 20:49:51 10° NNE
Cosmos 2227 4.3 20:39:42 10° SSW 20:45:20 61° ESE 20:51:01 10° NE
Okean 3 Rocket 3.9 20:42:10 10° N 20:46:33 51° ENE 20:50:51 10° SSE
Meteor 2-20 Rocket 4.4 20:42:06 10° S 20:47:53 81° E 20:53:56 10° NNE
CZ-4 R/B 3.9 20:45:34 10° SW 20:48:04 17° W 20:50:38 10° NW
Cosmos 2263 Rocket 4.0 20:43:23 10° WSW 20:48:28 36° NW 20:53:36 10° NNE
Helios 1A Rocket 3.3 20:45:50 10° N 20:48:52 48° WNW 20:51:53 10° SSW
Ariane Rocket 3.4 20:44:33 10° SE 20:49:29 54° ENE 20:54:26 10° N
IRS-1C Rocket 4.4 20:44:56 10° SE 20:50:02 55° ENE 20:55:10 10° N
Okean-O 3.0 20:46:14 10° S 20:50:34 65° WSW 20:54:57 10° NNW
Spot 2 Rocket 4.0 20:47:28 10° S 20:52:27 59° WSW 20:57:29 10° NNW
Cosmos 1805 Rocket 4.3 20:48:44 10° N 20:52:47 38° ENE 20:56:45 10° SE
CZ-4B R/B 4.4 20:50:45 10° SSW 20:55:48 38° W 21:00:48 10° NNW
NOSS 3-2 (A) 3.2 20:51:08 10° SSW 20:56:00 55° ESE 21:01:48 10° NE
Cosmos 1340 Rocket 2.9 20:52:29 10° N 20:56:13 56° ENE 20:59:47 11° SSE
Cosmos 1408 Rocket 4.2 20:52:46 10° N 20:56:58 42° ENE 21:01:00 11° SE
Cosmos 1842 Rocket 3.6 20:53:37 10° S 20:58:04 84° E 21:02:32 10° NNE
Cosmos 1603 3.8 20:52:17 10° NNW 20:58:04 89° ENE 21:03:42 10° SSE
USA 215 3.6 20:51:58 10° ESE 20:58:27 70° NNE 21:04:57 10° WNW
Cosmos 773 Rocket 4.1 20:55:20 10° SSW 21:00:28 81° WNW 21:05:41 10° NNE
BREEZE-M DEB (TANK) 3.1 20:59:42 10° WSW 21:01:04 15° SSW 21:02:13 11° S
Cosmos 1570 Rocket 4.5 21:00:23 10° SSW 21:05:40 67° WNW 21:11:02 10° NNE
Cosmos 1703 4.5 21:04:34 12° SE 21:06:22 18° E 21:08:36 10° NE
USA 245 3.0 21:03:17 10° SSE 21:07:05 85° WSW 21:10:12 10° NNW
Cosmos 1844 Rocket 2.7 21:02:09 10° SSW 21:07:45 86° ESE 21:13:21 10° NNE
Meteor 2-10 Rocket 4.2 21:02:19 10° NNW 21:08:05 63° W 21:13:43 10° S
SL-14 R/B 3.1 21:07:11 10° S 21:10:53 84° ESE 21:14:38 10° NNE
Cosmos 1238 Rocket 4.4 21:07:47 10° SSW 21:12:26 45° WNW 21:17:00 10° N
Cosmos 1553 Rocket 4.3 21:07:45 10° SSE 21:13:54 53° E 21:20:01 10° NNE
CZ-4C R/B 3.7 21:07:38 10° NW 21:14:21 47° WSW 21:22:31 10° S
Cosmos 1833 Rocket 3.6 21:12:23 10° NNW 21:17:41 40° NE 21:22:56 10° ESE
Cosmos 1151 Rocket 3.2 21:14:26 10° S 21:18:38 54° E 21:22:53 10° NNE
CZ-2C R/B 2.2 21:23:48 18° SE 21:25:33 51° ENE 21:28:15 10° N
Cosmos 1953 3.4 21:24:11 10° NNE 21:27:19 27° ENE 21:29:35 15° SE
SL-24 R/B - RUBIN 2 3.7 21:23:48 10° SW 21:28:19 76° NW 21:32:41 10° NE
Cosmos 1844 4.0 21:23:09 10° SW 21:28:55 76° WNW 21:34:46 10° NNE
CZ-4B R/B 3.6 21:24:45 12° S 21:29:28 77° WSW 21:34:41 10° NNW
Okean O Rocket 3.4 21:26:27 10° SSW 21:30:09 27° W 21:33:53 10° NW
Cosmos 1633 Rocket 4.4 21:31:25 10° N 21:35:09 27° ENE 21:38:07 14° ESE
In-Cosmos 22 4.4 21:29:57 10° SSW 21:35:42 77° WNW 21:41:30 10° N
NOSS 3-2 (C) 3.4 21:32:43 10° SSW 21:37:26 44° ESE 21:43:00 10° NE
Cosmos 1461 3.4 21:39:46 10° NW 21:43:00 35° WSW 21:45:06 18° S
NOSS 2-3 (C) 4.2 21:42:37 20° SE 21:43:26 22° ESE 21:46:12 10° ENE
CZ-4B R/B 3.9 21:42:34 11° SSW 21:46:01 38° W 21:49:44 10° NNW
Cosmos 1745 Rocket 4.2 21:40:01 10° N 21:46:12 61° ENE 21:51:04 17° SSE
Cosmos 1500 Rocket 3.9 21:49:08 10° NNW 21:53:25 59° W 21:56:48 15° S
Helios 1A 3.7 21:51:59 10° NNE 21:55:35 33° E 21:57:27 22° SE
Cosmos 2344 4.0 21:48:48 10° S 21:55:51 37° ESE 22:02:20 10° NE
GP-B 3.2 21:53:31 10° N 21:57:55 77° W 22:01:23 16° S
Iridium 4 Rocket 3.5 21:55:05 16° S 21:59:34 84° E 22:04:39 10° N
Helios 1B rocket 3.5 21:57:42 16° ESE 21:59:38 26° ENE 22:02:34 10° N
Cosmos 1607 4.3 21:54:36 10° NW 22:00:53 60° WSW 22:05:32 19° SSE
ARIANE 5 R/B 4.1 21:59:12 13° ESE 22:02:17 27° ENE 22:06:00 10° N
SWARM C 4.4 22:00:46 10° N 22:04:01 85° E 22:05:40 27° S
SWARM A 4.1 22:00:56 10° N 22:04:11 71° E 22:05:43 28° SSE
Cosmos 2285 Rocket 4.5 22:01:59 10° NNW 22:08:09 54° WSW 22:13:01 17° S
Cosmos 1420 Rocket 4.3 22:04:26 10° NNW 22:09:37 58° ENE 22:13:10 20° SE
NOSS 2-3 (D) 3.1 22:07:03 11° SSW 22:10:32 63° SE 22:14:20 10° NE
ALOS 2 4.0 22:11:55 15° ESE 22:14:46 29° ENE 22:18:34 10° N
Cosmos 1538 Rocket 3.9 22:11:36 15° SSW 22:15:52 74° ESE 22:21:07 10° NNE
Cosmos 2315 Rocket 4.2 22:13:38 20° SSE 22:17:57 59° E 22:24:03 10° NNE
Cosmos 1943 Rocket 3.2 22:16:33 20° SE 22:19:03 29° ESE 22:23:49 10° NE
CENTAUR R/B 4.4 22:14:04 10° W 22:19:46 36° NNW 22:26:48 10° NE
Iridium 45 4.3 22:18:35 27° SSW 22:20:03 67° W 22:23:07 10° N
Cosmos 1328 Rocket 3.5 22:24:39 24° S 22:27:12 75° E 22:31:33 10° NNE
CZ-2C R/B 4.4 22:23:07 10° NNE 22:27:33 40° E 22:29:46 25° SSE
Lacrosse 5 rocket 1.6 22:30:44 32° SE 22:30:59 33° SE 22:34:12 10° ENE
Cosmos 1666 Rocket 3.6 22:30:49 10° NNW 22:35:09 70° W 22:37:29 26° S
CZ-2C R/B 4.3 22:31:46 10° ESE 22:35:51 24° ENE 22:40:00 10° N
NOSS 2-3 (E) 3.3 22:34:30 10° SW 22:38:08 71° NW 22:42:01 10° NE
Cosmos 1371 Rocket 4.5 22:35:02 10° NNW 22:40:13 54° ENE 22:43:38 20° SE
USA 215 3.5 22:37:29 22° SSE 22:41:39 52° SW 22:48:01 10° WNW
GEOS 3 Rocket 3.6 22:45:16 23° SE 22:48:46 81° SW 22:54:12 10° NW
Timation 1 Rocket 4.4 22:45:14 10° NNW 22:51:13 73° WSW 22:54:45 25° SSE
S3M 4.2 22:48:42 17° SSW 22:53:30 66° WNW 22:59:38 10° N
NOSS 2-1 (D) 4.5 22:55:58 21° ESE 22:55:58 21° ESE 22:57:59 10° ENE
Cosmos 1515 Rocket 3.6 22:55:38 31° SSE 22:57:34 64° E 23:01:52 10° NNE
Cosmos 2184 Rocket 4.4 22:52:44 10° N 22:58:52 53° ENE 23:02:54 22° SE
CSL-04 DEB 4.0 22:57:32 37° SSE 22:58:55 88° WSW 23:02:38 10° NNW
ARGOS Delta rocket 4.1 22:53:41 10° NNE 22:59:07 90° W 23:02:18 25° SSW
USA 59 Rocket 0.5 23:01:29 28° ESE 23:01:29 28° ESE 23:03:55 10° ENE
Cosmos 1833 Rocket 3.4 22:56:21 10° NW 23:01:39 42° WSW 23:04:36 24° SSW
Spot 4 3.8 22:59:30 29° SSE 23:02:01 89° WSW 23:06:53 10° NNW
Cosmos 1953 3.9 22:59:14 10° NW 23:02:06 23° W 23:03:47 16° SW
Meteor 1-16 Rocket 4.4 23:00:01 10° NNW 23:05:28 64° W 23:08:42 25° S
SAR-Lupe-2 4.2 23:05:49 29° ESE 23:06:54 40° ENE 23:09:57 10° N
Cosmos 2082 Rocket 2.7 23:02:04 10° NNW 23:07:38 54° NE 23:11:51 17° SE
Okean 3 3.6 23:09:18 35° SSE 23:10:42 54° E 23:14:36 10° NNE
Meteor 1-23 Rocket 4.4 23:07:55 21° SSW 23:11:45 67° WNW 23:17:19 10° N
Cosmos 2278 Rocket 2.4 23:09:55 27° S 23:12:48 55° ESE 23:18:20 10° NE
Cosmos 1633 Rocket 4.1 23:08:51 10° NNW 23:12:51 35° W 23:15:02 22° SW
Cosmos 1400 Rocket 2.5 23:20:40 10° NNW 23:24:22 78° W 23:25:30 42° S
Cosmos 1624 Rocket 4.1 23:19:18 10° NNW 23:24:35 70° WSW 23:27:15 30° S
Cosmos 1680 Rocket 3.4 23:22:43 25° SSW 23:25:47 88° WNW 23:31:01 10° NNE
COSMOS 2406 4.4 23:20:28 10° NNW 23:25:49 40° NE 23:31:08 10° ESE
CZ-2C R/B 3.4 23:21:28 10° NNE 23:26:58 57° E 23:29:38 29° SSE
Cosmos 494 Rocket 3.9 23:24:38 27° SSW 23:27:31 82° ESE 23:32:48 10° NNE
NOSS 3-2 (C) 4.3 23:23:09 10° WSW 23:28:13 45° NNW 23:34:22 10° NE
Cosmos 2056 Rocket 3.6 23:26:17 10° NNW 23:31:18 58° WSW 23:33:38 30° S
Helios 1B rocket 3.5 23:31:35 22° WSW 23:32:31 25° W 23:35:26 10° NW
Cosmos 1048 Rocket 4.5 23:31:19 29° SSE 23:33:34 47° ESE 23:38:36 10° NNE
Cosmos 1328 4.4 23:35:16 31° SE 23:36:10 37° E 23:39:29 10° NNE
Cosmos 1812 3.6 23:34:50 10° NNW 23:35:32 20° NNW 23:35:32 20° NNW
ARIANE 5 R/B 3.4 23:36:34 27° SSW 23:38:24 41° W 23:42:37 10° NNW
ACS3 Solar Sail 2.5 23:34:48 10° NNE 23:40:06 38° E 23:43:12 22° SSE
USA 238 DEB 3.5 23:36:16 20° SSW 23:40:45 80° SE 23:47:34 10° NE
USA 238 3.5 23:36:31 20° SSW 23:40:57 79° SE 23:47:47 10° NE
Lacrosse 4 Rocket 4.4 23:39:36 10° N 23:41:40 13° NNE 23:43:43 10° ENE
Cosmos 546 4.4 23:46:11 17° WSW 23:49:02 74° SSE 23:52:48 10° ENE
BREEZE-M DEB (TANK) 3.4 23:36:04 10° W 23:49:27 88° S 23:53:28 10° E
ALOS 2 3.6 23:49:18 26° SW 23:51:00 36° W 23:55:04 10° NNW
Cosmos 1933 Rocket 4.1 23:48:05 10° NNW 23:52:13 45° W 23:53:53 30° SW
Cosmos 1441 Rocket 3.0 23:54:17 43° SW 23:55:06 60° WNW 23:58:19 10° N
